Regional Weather Roundup
Issued by NWS Kansas City/Pleasant Hill, MO

Home | Current Version | Previous Version | Text Only | Print | Product List | Glossary On
Versions: 1 2 3 4 5 6 7 8 9 10 11 12 13 14 15 16 17 18 19 20 21 22 23 24 25 26 27 28 29 30 31 32 33 34 35 36 37 38 39 40 41 42 43 44 45 46 47 48
000
ASUS43 KEAX 310010
RWREAX

WEATHER ROUNDUP FOR EASTERN KANSAS AND NORTHWEST MISSOURI
NATIONAL WEATHER SERVICE KANSAS CITY/PLEASANT HILL MO
700 PM CDT SUN AUG 30 2015

KSZ040-057-103>105-MOZ028-029-037-043-310100-
...KANSAS CITY METROPOLITAN AREA...

CITY           SKY/WX    TMP DP  RH WIND       PRES   REMARKS
K.C. INTL      PTCLDY    82  64  54 SE8       29.96F
6HR MIN TEMP:  79; 6HR MAX TEMP:  85;

K.C. DOWNTOWN  CLEAR     84  69  60 SE5       29.94F
6HR MIN TEMP:  81; 6HR MAX TEMP:  86;

LEES SUMMIT    CLEAR     81  70  69 E5        29.96F
6HR MIN TEMP:  79; 6HR MAX TEMP:  84;

OLATHE - IXD   CLEAR     81  69  67 SE6       29.97S
6HR MIN TEMP:  79; 6HR MAX TEMP:  84;

OLATHE - OJC   CLEAR     80  68  66 SE7       29.96S
6HR MIN TEMP:  78; 6HR MAX TEMP:  82;

LAWRENCE       CLEAR     82  67  60 SE6       29.95F

$$

MOZ001>008-011>017-020>025-030>033-038>040-044>046-053-054-310100-
...NORTHERN AND CENTRAL MISSOURI...

CITY           SKY/WX    TMP DP  RH WIND       PRES   REMARKS
ST. JOSEPH     PTCLDY    82  69  64 E5        29.96F
6HR MIN TEMP:  80; 6HR MAX TEMP:  84;

MOSBY          CLEAR     82  70  65 CALM      29.95F
WARRENSBURG    CLEAR     81  70  69 CALM      29.95S
WHITEMAN AFB   CLEAR     82  73  72 E5        29.95F
6HR MIN TEMP:  82; 6HR MAX TEMP:  87;

CLINTON        PTCLDY    82  73  74 CALM      29.96S
SEDALIA        PTCLDY    83  72  69 CALM      29.97F
6HR MIN TEMP:  83; 6HR MAX TEMP:  88;

WARSAW         NOT AVBL
CHILLICOTHE      N/A     83  71  67 NE3       29.98F
6HR MIN TEMP:  81; 6HR MAX TEMP:  86;

KIRKSVILLE     CLEAR     81  68  64 E3        30.00F
6HR MIN TEMP:  79; 6HR MAX TEMP:  84;


$$

MOZ041-047>049-056>058-063>065-088>090-097-310100-
...EASTERN AND SOUTHERN MISSOURI...

CITY           SKY/WX    TMP DP  RH WIND       PRES   REMARKS
ST. LOUIS INTL MOCLDY    84  69  60 E6        29.99S
6HR MIN TEMP:  84; 6HR MAX TEMP:  89;

SPIRIT OF STL  PTCLDY    81  75  82 CALM      29.97S
COLUMBIA       CLEAR     82  72  71 E5        29.98F
JEFFERSON CITY PTCLDY    83  71  67 E6        29.96S
ROLLA          CLEAR     80  70  71 SE3       29.99S
OSAGE BEACH    CLEAR     82  72  69 CALM      29.98S
SPRINGFIELD    CLEAR     82  69  64 SE9       29.98S
BRANSON        MOCLDY    81  72  74 CALM      30.00F
JOPLIN         MOCLDY    80  74  81 E7        29.95F
WEST PLAINS    CLEAR     82  70  66 CALM      30.02S

$$

IAZ060-094-KSZ022-034>040-054-083-096-NEZ052-066-093-310100-
...KANSAS...SOUTHEAST NEBRASKA AND IOWA...

CITY           SKY/WX    TMP DP  RH WIND       PRES   REMARKS
TOPEKA         CLOUDY    80  70  71 E6        29.95F
6HR MIN TEMP:  74; 6HR MAX TEMP:  85;

MANHATTAN      SUNNY     79  68  69 E7        29.95F
EMPORIA        SUNNY     80  66  62 E6        29.95F
CHANUTE        CLEAR     81  70  69 NE3       29.95F
WICHITA        MOSUNNY   82  64  54 SE7       29.95S
OMAHA          MOSUNNY   75  67  76 S12       29.96F
LINCOLN        SUNNY     76  67  73 S12       29.97F
FALLS CITY     SUNNY     78  70  76 CALM      29.95F
LAMONI         CLEAR     78  69  73 CALM      29.99F
DES MOINES     MOCLDY    77  67  71 SE6       29.98F

$$



USA.gov is the U.S. government's official web portal to all federal, state and local government web resources and services.